Weather History for West Palm Beach, FL

Change the Weather History Date:

Friday, November 12, 2010

  Actual Average Record
Temperature  
Mean Temperature 73 °F 73 °F  
Max Temperature 81 °F 81 °F 90 °F (1947)
Min Temperature 65 °F 66 °F 48 °F (1913)
Degree Days  
Heating Degree Days 0 0  
Month to date heating degree days 9 0  
Since 1 July heating degree days 9 1  
Cooling Degree Days 8 9  
Month to date cooling degree days 83 113  
Year to date cooling degree days 3851 3734  
Growing Degree Days 24 (Base 50)    
Moisture  
Dew Point 59 °F    
Average Humidity 71    
Maximum Humidity 100    
Minimum Humidity 42    
Precipitation  
Precipitation 0.11 in 0.19 in 1.40 in (1938)
Month to date precipitation 1.08 2.12  
Year to date precipitation 51.79 56.32  
Snow  
Snow 0.00 in - - ()
Month to date snowfall 0.0  
Since 1 July snowfall 0.0  
Since 1 September snowfall 0.0  
Snow Depth 0.00 in    
Sea Level Pressure  
Sea Level Pressure 30.11 in    
Wind  
Wind Speed 11 mph (NNE)    
Max Wind Speed 22 mph    
Max Gust Speed 25 mph    
Visibility 10 miles    
Events Rain    
T = Trace of Precipitation, MM = Missing Value Source: NWS Daily Summary

Daily Weather History Graph

Daily Weather History Graph

Search for Another Location

Airport:

Trip Planner

Search our weather history database for the weather conditions in past years. The results will help you decide how hot, cold, wet, or windy it might be!

Date:

Astronomy

Nov. 12, 2010 Rise Set
Actual Time 6:37 AM EST 5:31 PM EST
Civil Twilight 6:13 AM EST 5:55 PM EST
Nautical Twilight 5:45 AM EST 6:23 PM EST
Astronomical Twilight 5:17 AM EST 6:51 PM EST
Moon 12:09 PM EST (11/12) 11:31 PM EST (11/12)
Length of Visible Light 11h 42m
Length of Day
10h 53m
Waxing Crescent, 41% of the Moon is Illuminated
Nov 12
Waxing Crescent
Nov 13
First Quarter
Nov 21
Full
Nov 28
Last Quarter
Dec 5
New

Hourly Weather History & Observations

Time (EST) Temp. Heat Index Dew Point Humidity Pressure Visibility Wind Dir Wind Speed Gust Speed Precip Events Conditions
12:53 AM 68.0 °F - 61.0 °F 78% 30.12 in 10.0 mi NW 4.6 mph - N/A   Mostly Cloudy
1:53 AM 66.9 °F - 63.0 °F 87% 30.11 in 8.0 mi NNW 8.1 mph - 0.04 in Rain Light Rain
2:53 AM 66.0 °F - 64.0 °F 93% 30.10 in 10.0 mi NW 8.1 mph - 0.05 in   Overcast
3:53 AM 66.9 °F - 66.0 °F 97% 30.10 in 10.0 mi Variable 5.8 mph - N/A   Overcast
4:53 AM 69.1 °F - 64.0 °F 84% 30.10 in 10.0 mi Variable 6.9 mph - 0.00 in   Overcast
5:53 AM 73.0 °F - 57.9 °F 59% 30.11 in 10.0 mi NNE 12.7 mph 19.6 mph N/A   Mostly Cloudy
6:53 AM 73.0 °F - 57.9 °F 59% 30.12 in 10.0 mi NNE 8.1 mph - N/A   Mostly Cloudy
7:53 AM 73.9 °F - 59.0 °F 59% 30.13 in 10.0 mi NE 13.8 mph - 0.01 in   Mostly Cloudy
8:53 AM 78.1 °F - 55.9 °F 46% 30.14 in 10.0 mi NNE 15.0 mph 19.6 mph N/A   Scattered Clouds
9:53 AM 73.0 °F - 63.0 °F 71% 30.16 in 10.0 mi NNE 11.5 mph - 0.00 in Rain Light Rain
10:53 AM 77.0 °F - 64.0 °F 64% 30.14 in 10.0 mi NE 8.1 mph - 0.01 in   Overcast
11:53 AM 80.1 °F 80.9 °F 60.1 °F 50% 30.13 in 10.0 mi NE 20.7 mph 25.3 mph N/A   Mostly Cloudy
12:53 PM 80.1 °F 80.4 °F 57.0 °F 45% 30.11 in 10.0 mi NNE 16.1 mph 24.2 mph N/A   Scattered Clouds
1:53 PM 81.0 °F 80.8 °F 55.9 °F 42% 30.09 in 10.0 mi NNE 15.0 mph - N/A   Scattered Clouds
2:53 PM 79.0 °F - 55.9 °F 45% 30.09 in 10.0 mi NNE 15.0 mph - N/A   Scattered Clouds
3:53 PM 79.0 °F - 55.9 °F 45% 30.09 in 10.0 mi NNE 13.8 mph - N/A   Scattered Clouds
4:53 PM 77.0 °F - 55.9 °F 48% 30.09 in 10.0 mi NNE 9.2 mph - N/A   Scattered Clouds
5:53 PM 75.0 °F - 55.9 °F 51% 30.10 in 10.0 mi NNE 10.4 mph - N/A   Scattered Clouds
6:53 PM 75.0 °F - 59.0 °F 57% 30.11 in 10.0 mi NNE 12.7 mph 19.6 mph N/A   Scattered Clouds
7:53 PM 75.0 °F - 57.9 °F 55% 30.12 in 10.0 mi NNE 13.8 mph 19.6 mph N/A   Scattered Clouds
8:53 PM 75.0 °F - 57.0 °F 53% 30.12 in 10.0 mi NE 12.7 mph 18.4 mph N/A   Scattered Clouds
9:53 PM 73.9 °F - 59.0 °F 59% 30.12 in 10.0 mi NNE 13.8 mph 18.4 mph N/A   Scattered Clouds
10:53 PM 73.9 °F - 57.9 °F 57% 30.12 in 10.0 mi ENE 11.5 mph 20.7 mph N/A   Mostly Cloudy
11:53 PM 73.9 °F - 57.0 °F 55% 30.11 in 10.0 mi NE 6.9 mph - N/A   Mostly Cloudy